[[{"header":{"parameterUnit":"m.s-1","parameterCategory":1,"la1":30.2991,"la2":30.254,"lo1":-89.0895,"lo2":-89.0444,"dy":0.0017,"dx":0.0017,"nx":28,"ny":28,"refTime":"2024-03-20T21:00:00:Z","depth":0,"parameterNumber":2,"parameterNumberName":"U-component_of_WINDS"},"data":[0,0,0,0,0,0,0,0,0,0,0,0,0,0,0,0,0,0,0,0,0,0,0,0,0,0,0,0,0,0,0,0,0,0,0,0,0,0,0,0,0,0,0,0,0,0,0,0,0,0,0,0,0,0,0,0,0,0,-2.2316,-2.2316,0,-2.2312,-2.2312,-2.2312,-2.224,-2.2239,-2.2237,-2.2235,-2.2235,-2.2237,-2.2238,0,0,0,0,0,0,0,0,0,0,0,0,0,-2.2266,-2.2267,-2.2316,-2.2316,-2.2316,-2.2312,-2.2312,-2.2312,-2.2241,-2.2239,-2.2236,-2.2234,-2.2234,-2.2236,-2.2238,0,0,0,0,0,0,0,0,0,0,0,0,0,-2.2277,-2.2267,-2.2316,-2.228,-2.2277,-2.2312,-2.2312,-2.2312,-2.2241,-2.2238,-2.2236,-2.2233,-2.2234,-2.2236,-2.2239,-2.231,0,0,-2.2246,-2.2248,0,0,0,0,0,0,0,0,-2.2277,-2.2279,-2.2285,-2.2282,-2.2279,-2.2274,-2.2294,-2.2311,-2.2242,-2.2255,-2.2235,-2.2232,-2.225,-2.2251,-2.2257,-2.2309,-2.2309,-2.2247,-2.2248,-2.2249,-2.225,0,0,0,0,0,0,0,-2.2276,-2.2279,-2.2314,-2.2285,-2.2281,-2.2265,-2.2264,-2.2297,-2.2268,-2.2253,-2.2248,-2.2249,-2.2248,-2.2254,-2.2256,-2.2309,-2.2247,-2.2249,-2.225,-2.2251,-2.242,-2.2423,0,0,0,0,0,0,-2.228,-2.2279,-2.2315,-2.2314,-2.2271,-2.2268,-2.2266,-2.2278,-2.2268,-2.2263,-2.2251,-2.2245,-2.2251,-2.2253,-2.2256,-2.2338,-2.2249,-2.2252,-2.2253,-2.2417,-2.2421,-2.2424,0,0,0,0,0,0,-2.2279,-2.2284,-2.2315,-2.2295,-2.2298,-2.2272,-2.2286,-2.228,-2.2286,-2.2266,-2.226,-2.2262,-2.2249,-2.2252,-2.2296,-2.2337,-2.2253,-2.2255,-2.2414,-2.2418,-2.2422,-2.2503,0,0,0,0,0,0,-2.2278,-2.2284,-2.231,-2.2296,-2.2299,-2.2355,-2.2288,-2.2282,-2.229,-2.2283,-2.2275,-2.2271,-2.2247,-2.2293,-2.2299,-2.2339,-2.2257,-2.241,-2.2416,-2.2421,-2.2497,-2.251,-2.2521,0,0,0,0,0,-2.2276,-2.2334,-2.2311,-2.2316,-2.2331,-2.2357,-2.2359,-2.2329,-2.2294,-2.232,-2.2307,-2.2271,-2.2331,-2.2298,-2.2304,-2.2346,-2.2407,-2.2414,-2.242,-2.2491,-2.2507,-2.2521,0,0,0,0,0,0,-2.2354,-2.2331,-2.2306,-2.2361,-2.2361,-2.2345,-2.2377,-2.2347,-2.2359,-2.2351,-2.2315,-2.2314,-2.2364,-2.2359,-2.2322,-2.2414,-2.2363,-2.2371,-2.2415,-2.243,-2.2442,-2.2442,-2.2259,0,0,0,0,0,-2.2377,-2.2399,-2.2378,-2.2429,-2.243,-2.2404,-2.2414,-2.2391,-2.2391,-2.2391,-2.2381,-2.2383,-2.2402,-2.2416,-2.2432,-2.2495,-2.2493,-2.2527,-2.2539,-2.2549,-2.2557,-2.259,-2.2605,-2.2446,-2.2445,-2.2445,0,0,-2.2426,-2.2416,-2.2433,-2.2444,-2.2442,-2.2466,-2.2405,-2.2433,-2.2452,-2.2396,-2.2436,-2.2429,-2.2429,-2.2483,-2.2506,-2.2481,-2.26,-2.2558,-2.2566,-2.2568,-2.2598,-2.2614,-2.2627,-2.245,-2.2449,-2.2449,0,0,-2.2528,-2.2522,-2.2563,-2.2562,-2.2558,-2.254,-2.255,-2.2538,-2.2531,-2.2571,-2.2529,-2.2551,-2.2585,-2.2586,-2.2591,-2.2693,-2.2661,-2.2699,-2.2763,-2.2796,-2.2808,-2.2819,-2.2856,-2.2869,-2.2707,-2.2707,-2.2707,0,-2.2589,-2.2623,-2.2588,-2.262,-2.2626,-2.2575,-2.2617,-2.2617,-2.262,-2.2627,-2.2597,-2.2638,-2.2634,-2.2688,-2.2713,-2.2718,-2.2729,-2.27,-2.2809,-2.282,-2.2829,-2.2864,-2.2878,-2.2712,-2.2711,-2.2711,-2.271,0,-2.2699,-2.2724,-2.2757,-2.276,-2.277,-2.2807,-2.2778,-2.2793,-2.2769,-2.2754,-2.2796,-2.2789,-2.2803,-2.2814,-2.2792,-2.2865,-2.2849,-2.2815,-2.2764,-2.285,-2.2882,-2.2894,-2.2719,-2.2717,-2.2715,-2.2714,0,0,-2.285,-2.2832,-2.2845,-2.2845,-2.2838,-2.2856,-2.2891,-2.2903,-2.2917,-2.2921,-2.2949,-2.2978,-2.2947,-2.2953,-2.293,-2.2958,-2.3039,-2.2921,-2.292,-2.2943,-2.312,-2.3146,-2.3162,-2.3018,-2.302,-2.3022,-2.312,0,-2.2948,-2.3005,-2.2974,-2.3035,-2.3058,-2.3009,-2.3039,-2.3038,-2.3025,-2.3043,-2.303,-2.3051,-2.3007,-2.301,-2.3037,-2.3024,-2.3074,-2.3016,-2.3045,-2.3046,-2.3047,-2.3178,-2.3206,-2.3299,-2.3132,-2.3134,-2.3136,0,-2.307,-2.3078,-2.3141,-2.3128,-2.3136,-2.3164,-2.3173,-2.319,-2.3188,-2.3177,-2.3183,-2.3153,-2.3187,-2.3136,-2.3182,-2.3143,-2.3153,-2.3149,-2.3151,-2.3153,-2.3097,-2.3184,-2.3327,-2.3342,-2.3155,-2.3153,-2.3152,0,-2.3175,-2.32,-2.3241,-2.3243,-2.3229,-2.325,-2.3245,-2.324,-2.325,-2.3258,-2.3264,-2.3277,-2.3284,-2.3294,-2.3269,-2.3234,-2.3319,-2.3266,-2.3312,-2.3312,-2.3332,-2.3332,-2.348,-2.3338,-2.3338,-2.3338,-2.3337,0,-2.3288,-2.3328,-2.3288,-2.3313,-2.3357,-2.3322,-2.3367,-2.3357,-2.3353,-2.3377,-2.3336,-2.3359,-2.3323,-2.3343,-2.3324,-2.3365,-2.3369,-2.3361,-2.3356,-2.3365,-2.3366,-2.3372,-2.3365,-2.3341,-2.334,-2.334,-2.3339,0,-2.3412,-2.3386,-2.3428,-2.3411,-2.3408,-2.3441,-2.3427,-2.345,-2.3434,-2.3464,-2.3469,-2.3445,-2.3466,-2.3441,-2.3461,-2.3447,-2.3504,-2.3489,-2.3504,-2.35,-2.3548,-2.3544,-2.3705,-2.3724,-2.357,-2.3572,-2.3573,0,-2.3486,-2.3516,-2.3502,-2.3513,-2.3511,-2.3531,-2.354,-2.3507,-2.3518,-2.3518,-2.3541,-2.3558,-2.357,-2.3607,-2.3591,-2.3606,-2.3591,-2.3646,-2.3593,-2.3601,-2.3592,-2.3591,-2.3594,-2.3658,-2.3659,-2.3661,-2.3662,0,-2.362,-2.3605,-2.3619,-2.3629,-2.364,-2.3646,-2.365,-2.3662,-2.3627,-2.3642,-2.3662,-2.3672,-2.3691,-2.3709,-2.3719,-2.3715,-2.3684,-2.3679,-2.369,-2.3701,-2.3709,-2.3705,-2.3535,-2.3676,-2.3674,-2.3673,-2.3672,-2.3672,-2.3721,-2.3745,-2.3739,-2.3756,-2.3754,-2.3758,-2.3779,-2.3765,-2.3781,-2.3793,-2.3773,-2.3798,-2.3796,-2.3806,-2.3806,-2.3826,-2.3802,-2.3819,-2.3823,-2.3828,-2.3835,-2.3705,-2.3828,-2.3827,-2.3827,-2.3827,-2.3826,0,-2.3853,-2.3847,-2.3862,-2.3867,-2.3881,-2.3848,-2.385,-2.3864,-2.3886,-2.3886,-2.3898,-2.3922,-2.3939,-2.3924,-2.3939,-2.3958,-2.3944,-2.3963,-2.3961,-2.3961,-2.3856,-2.3844,-2.3974,-2.3974,-2.3974,-2.3974,-2.3974,-2.3974,-2.3924,-2.3963,-2.3948,-2.3986,-2.3979,-2.4003,-2.4007,-2.401,-2.401,-2.4037,-2.4051,-2.4041,-2.4035,-2.4048,-2.4063,-2.4058,-2.4066,-2.409,-2.4081,-2.3983,-2.3968,-2.3955,-2.3944,-2.4092,-2.4092,-2.4184,-2.4185,-2.4186]},{"header":{"parameterUnit":"m.s-1","parameterCategory":1,"la1":30.2991,"la2":30.254,"lo1":-89.0895,"lo2":-89.0444,"dy":0.0017,"dx":0.0017,"nx":28,"ny":28,"refTime":"2024-03-20T21:00:00:Z","depth":0,"parameterNumber":3,"parameterNumberName":"V-component_of_WINDS"},"data":[0,0,0,0,0,0,0,0,0,0,0,0,0,0,0,0,0,0,0,0,0,0,0,0,0,0,0,0,0,0,0,0,0,0,0,0,0,0,0,0,0,0,0,0,0,0,0,0,0,0,0,0,0,0,0,0,0,0,-0.6471,-0.6471,0,-0.6466,-0.6466,-0.6466,-0.6457,-0.6457,-0.6457,-0.6457,-0.6451,-0.6451,-0.6451,0,0,0,0,0,0,0,0,0,0,0,0,0,-0.6474,-0.6474,-0.6471,-0.6471,-0.6471,-0.6466,-0.6466,-0.6466,-0.6457,-0.6457,-0.6457,-0.6456,-0.6451,-0.6451,-0.6451,0,0,0,0,0,0,0,0,0,0,0,0,0,-0.6471,-0.6474,-0.6471,-0.6466,-0.6466,-0.6466,-0.6466,-0.6466,-0.6457,-0.6457,-0.6457,-0.6456,-0.6451,-0.6451,-0.6451,-0.6456,0,0,-0.6451,-0.6451,0,0,0,0,0,0,0,0,-0.6471,-0.6471,-0.6467,-0.6467,-0.6466,-0.6462,-0.6465,-0.6463,-0.6457,-0.646,-0.6457,-0.6456,-0.6455,-0.6454,-0.6454,-0.6456,-0.6455,-0.6451,-0.6451,-0.6451,-0.6451,0,0,0,0,0,0,0,-0.6471,-0.6471,-0.6469,-0.6467,-0.6466,-0.6464,-0.6463,-0.6464,-0.6459,-0.646,-0.6459,-0.6459,-0.6454,-0.6454,-0.6454,-0.6455,-0.6451,-0.6451,-0.6451,-0.6451,-0.646,-0.6461,0,0,0,0,0,0,-0.6472,-0.6471,-0.6469,-0.6469,-0.6468,-0.6464,-0.6463,-0.6463,-0.6459,-0.6458,-0.6459,-0.6458,-0.6454,-0.6454,-0.6454,-0.6459,-0.6451,-0.6451,-0.6451,-0.646,-0.646,-0.6461,0,0,0,0,0,0,-0.6472,-0.6472,-0.647,-0.647,-0.6469,-0.6464,-0.6465,-0.6463,-0.6463,-0.6458,-0.6457,-0.646,-0.6454,-0.6454,-0.6455,-0.6459,-0.6451,-0.6451,-0.646,-0.646,-0.6461,-0.647,0,0,0,0,0,0,-0.6472,-0.6472,-0.6474,-0.647,-0.6469,-0.6472,-0.6465,-0.6464,-0.6463,-0.6462,-0.6459,-0.6458,-0.6454,-0.6455,-0.6455,-0.6458,-0.6451,-0.646,-0.646,-0.646,-0.6469,-0.647,-0.6471,0,0,0,0,0,-0.6472,-0.6477,-0.6474,-0.6474,-0.6472,-0.6472,-0.6471,-0.6467,-0.6463,-0.6465,-0.6462,-0.6458,-0.6458,-0.6456,-0.6456,-0.6459,-0.6459,-0.646,-0.646,-0.6468,-0.647,-0.6471,0,0,0,0,0,0,-0.6482,-0.6476,-0.6473,-0.6477,-0.6475,-0.647,-0.6472,-0.6469,-0.6468,-0.6467,-0.6461,-0.646,-0.6463,-0.6461,-0.6458,-0.6463,-0.6458,-0.6459,-0.6464,-0.6466,-0.6467,-0.6467,-0.6451,0,0,0,0,0,-0.6484,-0.6485,-0.648,-0.6483,-0.6482,-0.6478,-0.6477,-0.6474,-0.6472,-0.6471,-0.6468,-0.6466,-0.6466,-0.6465,-0.6465,-0.6469,-0.6467,-0.6471,-0.6472,-0.6473,-0.6473,-0.6475,-0.6476,-0.6462,-0.6462,-0.6462,0,0,-0.6489,-0.6486,-0.6487,-0.6485,-0.6483,-0.6484,-0.6477,-0.6478,-0.6478,-0.6471,-0.6473,-0.647,-0.6468,-0.647,-0.6471,-0.6469,-0.6477,-0.6473,-0.6474,-0.6474,-0.6475,-0.6477,-0.6478,-0.6463,-0.6463,-0.6463,0,0,-0.6498,-0.6496,-0.6499,-0.6497,-0.6494,-0.6491,-0.6491,-0.6488,-0.6486,-0.6487,-0.6482,-0.6482,-0.6481,-0.648,-0.6479,-0.6487,-0.6483,-0.6487,-0.6493,-0.6494,-0.6495,-0.6496,-0.6499,-0.65,-0.6487,-0.6487,-0.6487,0,-0.6505,-0.6505,-0.65,-0.6502,-0.6501,-0.6494,-0.6497,-0.6495,-0.6492,-0.6492,-0.6489,-0.6488,-0.6486,-0.6488,-0.649,-0.6489,-0.649,-0.6487,-0.6496,-0.6496,-0.6497,-0.65,-0.6501,-0.6488,-0.6488,-0.6488,-0.6488,0,-0.6513,-0.6514,-0.6516,-0.6514,-0.6513,-0.6515,-0.651,-0.651,-0.6506,-0.6503,-0.6505,-0.6502,-0.65,-0.65,-0.6497,-0.6502,-0.65,-0.6497,-0.6492,-0.6499,-0.6501,-0.6502,-0.6489,-0.6488,-0.6488,-0.6488,0,0,-0.6528,-0.6523,-0.6524,-0.6522,-0.6519,-0.6519,-0.652,-0.6519,-0.6519,-0.6517,-0.6518,-0.6517,-0.6514,-0.6513,-0.6509,-0.651,-0.6517,-0.6506,-0.6506,-0.6508,-0.6521,-0.6524,-0.6525,-0.6514,-0.6514,-0.6514,-0.6522,0,-0.6537,-0.6539,-0.6534,-0.6537,-0.6537,-0.6531,-0.6532,-0.653,-0.6527,-0.6527,-0.6524,-0.6523,-0.6519,-0.6518,-0.6519,-0.6516,-0.6519,-0.6515,-0.6515,-0.6515,-0.6515,-0.6527,-0.653,-0.6537,-0.6522,-0.6523,-0.6523,0,-0.6547,-0.6545,-0.6548,-0.6544,-0.6544,-0.6545,-0.6543,-0.6543,-0.654,-0.6538,-0.6537,-0.6533,-0.6533,-0.6529,-0.6529,-0.6527,-0.6526,-0.6525,-0.6525,-0.6524,-0.6519,-0.6526,-0.6539,-0.654,-0.6524,-0.6524,-0.6524,0,-0.6557,-0.6556,-0.6558,-0.6557,-0.6552,-0.6553,-0.6551,-0.6548,-0.6547,-0.6545,-0.6545,-0.6543,-0.6542,-0.6541,-0.6537,-0.6534,-0.6538,-0.6533,-0.6536,-0.6536,-0.6537,-0.6537,-0.6549,-0.6537,-0.6537,-0.6537,-0.6537,0,-0.6567,-0.6569,-0.6562,-0.6563,-0.6565,-0.656,-0.6562,-0.6559,-0.6557,-0.6557,-0.6551,-0.6552,-0.6546,-0.6545,-0.6542,-0.6543,-0.6542,-0.654,-0.6539,-0.6541,-0.6541,-0.654,-0.654,-0.6537,-0.6537,-0.6537,-0.6537,0,-0.6579,-0.6574,-0.6575,-0.6571,-0.657,-0.6571,-0.6567,-0.6568,-0.6565,-0.6565,-0.6565,-0.656,-0.6559,-0.6554,-0.6552,-0.655,-0.6552,-0.655,-0.6553,-0.6552,-0.6556,-0.6555,-0.6568,-0.6569,-0.6556,-0.6556,-0.6556,0,-0.6585,-0.6586,-0.6582,-0.6582,-0.658,-0.658,-0.6579,-0.6574,-0.6573,-0.657,-0.6571,-0.6569,-0.6568,-0.6567,-0.6563,-0.6562,-0.6559,-0.6564,-0.6559,-0.656,-0.6559,-0.6559,-0.6559,-0.6565,-0.6565,-0.6565,-0.6565,0,-0.6597,-0.6594,-0.6594,-0.6592,-0.6591,-0.659,-0.6588,-0.6588,-0.6582,-0.6581,-0.658,-0.6579,-0.6577,-0.6576,-0.6574,-0.6572,-0.6568,-0.6567,-0.6567,-0.6569,-0.657,-0.6569,-0.6556,-0.6567,-0.6566,-0.6566,-0.6566,-0.6566,-0.6606,-0.6607,-0.6604,-0.6603,-0.6601,-0.6599,-0.6599,-0.6596,-0.6595,-0.6593,-0.659,-0.6589,-0.6586,-0.6583,-0.6581,-0.658,-0.6578,-0.6579,-0.6579,-0.6579,-0.658,-0.6571,-0.658,-0.658,-0.658,-0.658,-0.658,0,-0.6617,-0.6615,-0.6614,-0.6611,-0.6611,-0.6607,-0.6604,-0.6604,-0.6604,-0.6601,-0.66,-0.6599,-0.6597,-0.6593,-0.6592,-0.6592,-0.659,-0.6591,-0.6591,-0.6591,-0.6582,-0.6582,-0.6593,-0.6593,-0.6593,-0.6593,-0.6593,-0.6593,-0.6623,-0.6624,-0.6621,-0.6621,-0.6619,-0.6618,-0.6617,-0.6615,-0.6613,-0.6612,-0.6611,-0.6609,-0.6605,-0.6603,-0.6602,-0.6601,-0.66,-0.6602,-0.6601,-0.6593,-0.6591,-0.659,-0.659,-0.6602,-0.6602,-0.6609,-0.6609,-0.6609]}]]